Location: Rodanthe
(35.5920°N, 75.4670°W)
Time: 05:49:54
(UTC-04:00)

ISS - All Passes

Search period start: 28 May 2016 00:00
Search period end: 07 June 2016 00:00
Orbit: 402 x 404 km, 51.6° (Epoch: 28 May)

Date Brightness Start Highest point End Pass type
(mag) Time Alt. Az. Time Alt. Az. Time Alt. Az.
28 May - 03:07:35 10° N 03:09:05 13° NNE 03:10:36 10° NE visible
28 May - 04:42:41 10° NW 04:45:57 87° NE 04:49:12 10° SE visible
28 May - 19:46:05 10° SE 19:47:06 11° SE 19:48:08 10° ESE daylight
28 May - 21:19:58 10° WSW 21:23:10 55° NW 21:26:23 10° NE visible
29 May - 03:50:04 10° NW 03:53:11 40° NE 03:56:16 10° ESE visible
29 May - 05:27:22 10° W 05:29:21 15° SW 05:31:19 10° SSW daylight
29 May - 20:27:12 10° SW 20:30:26 66° SE 20:33:40 10° NE daylight
29 May - 22:05:11 10° WNW 22:07:10 15° NNW 22:09:09 10° N visible
30 May - 02:57:38 10° NNW 03:00:18 22° NNE 03:02:57 10° E visible
30 May - 04:33:49 10° WNW 04:36:46 32° SW 04:39:41 10° SSE visible
30 May - 19:34:54 10° SSW 19:37:47 29° SE 19:40:39 10° ENE daylight
30 May - 21:11:29 10° W 21:14:12 24° NNW 21:16:56 10° NNE visible
31 May - 02:05:28 10° N 02:07:19 14° NNE 02:09:11 10° ENE visible
31 May - 03:40:51 10° NW 03:44:06 73° SW 03:47:20 10° SE night (unlit)
31 May - 18:43:25 10° SSE 18:45:11 14° SE 18:46:59 10° E daylight
31 May - 20:18:11 10° WSW 20:21:20 44° NW 20:24:29 10° NE daylight
01 Jun - 02:48:09 10° NW 02:51:20 50° NE 02:54:31 10° ESE visible
01 Jun - 04:26:03 10° WSW 04:27:26 12° SW 04:28:48 10° SSW night (unlit)
01 Jun - 19:25:18 10° SW 19:28:34 84° SE 19:31:50 10° NE daylight
01 Jun - 21:03:43 10° WNW 21:05:23 13° NNW 21:07:03 10° N visible
02 Jun - 01:55:40 10° NNW 01:58:29 26° NE 02:01:17 10° E visible
02 Jun - 03:32:07 10° WNW 03:34:52 25° SW 03:37:36 10° S night (unlit)
02 Jun - 18:32:50 10° SSW 18:35:52 36° SE 18:38:54 10° ENE daylight
02 Jun - 20:09:50 10° W 20:12:23 21° NNW 20:14:57 10° NNE daylight
03 Jun - 01:03:23 10° NNW 01:05:32 16° NNE 01:07:41 10° ENE visible
03 Jun - 02:39:00 10° NW 02:42:12 57° SW 02:45:24 10° SE night (unlit)
03 Jun - 17:41:01 10° S 17:43:16 17° SE 17:45:30 10° E daylight
03 Jun - 19:16:26 10° WSW 19:19:29 36° NW 19:22:32 10° NNE daylight
04 Jun - 00:11:40 10° N 00:12:29 11° NNE 00:13:18 10° NE visible
04 Jun - 01:46:14 10° NW 01:49:28 63° NE 01:52:41 10° ESE visible
04 Jun - 18:23:24 10° SW 18:26:40 76° NW 18:29:56 10° NE daylight
04 Jun - 20:02:18 10° NW 20:03:35 12° NNW 20:04:51 10° N daylight
05 Jun - 00:53:40 10° NNW 00:56:38 31° NE 00:59:34 10° E visible
05 Jun - 02:30:26 10° W 02:32:56 20° SW 02:35:25 10° S night (unlit)
05 Jun - 17:30:48 10° SSW 17:33:56 46° SE 17:37:05 10° ENE daylight
05 Jun - 19:08:12 10° WNW 19:10:32 18° NNW 19:12:54 10° NNE daylight
06 Jun - 00:01:18 10° NNW 00:03:42 18° NNE 00:06:05 10° ENE visible
06 Jun - 01:37:10 10° WNW 01:40:17 44° SW 01:43:23 10° SSE night (unlit)
06 Jun - 16:38:44 10° S 16:41:17 21° SE 16:43:52 10° ENE daylight
06 Jun - 18:14:40 10° W 18:17:36 30° NW 18:20:33 10° NNE daylight
06 Jun - 23:09:18 10° N 23:10:40 12° NNE 23:12:01 10° NE visible
